Regional Weather Roundup
Issued by NWS Newport/Morehead, NC

Current Version | Previous Version | Text Only | Print | Product List | Glossary On
Versions: 1 2 3 4 5 6 7 8 9 10 11 12 13 14 15 16 17 18 19 20 21 22 23 24 25 26 27 28 29 30 31 32 33 34 35 36 37 38 39 40 41 42 43 44 45 46 47 48 49 50
000 ASUS42 KMHX 230325 RWRMHX WEATHER ROUNDUP FOR EASTERN NORTH CAROLINA NATIONAL WEATHER SERVICE NEWPORT/MOREHEAD CITY NC 1100 PM EDT SAT JUL 22 2017 NOTE: "FAIR" INDICATES FEW OR NO CLOUDS BELOW 12,000 FEET WITH NO SIGNIFICANT WEATHER AND/OR OBSTRUCTIONS TO VISIBILITY NCZ015>017-031-032-045>047-102-103-230400- NORTH COAST CITY SKY/WX TMP DP RH WIND PRES REMARKS EDENTON CLEAR 84 76 76 SW10G17 29.88F ELIZABETH CITY MOCLDY 84 77 79 S15 29.86F KITTY HAWK CLEAR 82 73 73 SW8 29.88S MANTEO CLEAR 82 74 79 SW17G23 29.90R $$ NCZ045>047-081-094-103-104-230400- CENTRAL COAST CITY SKY/WX TMP DP RH WIND PRES REMARKS FRISCO CLEAR 78 75 90 SW13 29.93 $$ NCZ095-097-098-100-101-230400- SOUTHERN COAST CITY SKY/WX TMP DP RH WIND PRES REMARKS BEAUFORT CLEAR 82 79 90 SW15 29.94F CEDAR ISLAND NOT AVBL JACKSONVILLE CLEAR 80 75 84 S8 29.92F PINEY ISLAND CLEAR N/A N/A N/A SW16G22 29.93S WILMINGTON CLEAR 81 76 84 S10 29.94F $$ NCZ011>013-027>030-043-044-078>080-089-090>093-098-230400- COASTAL PLAIN CITY SKY/WX TMP DP RH WIND PRES REMARKS AHOSKIE N/A 83 74 74 S3 29.86S CLINTON CLEAR 81 77 89 CALM 29.93S ELIZABETHTOWN NOT AVBL GOLDSBORO NOT AVBL GREENVILLE CLEAR 82 73 74 SW9 29.91F HAVELOCK CLEAR 81 75 82 SW14 29.94F KENANSVILLE CLEAR 79 73 83 CALM 29.92F KINSTON CLEAR 82 73 73 S13 29.91F NEW BERN CLEAR 80 76 87 SW10 29.93S RICHLANDS CLEAR 79 74 84 S9 29.94R ROCKY MOUNT CLEAR 85 74 69 S13G21 29.87F WASHINGTON CLEAR 82 73 74 S9 29.90F WHITEVILLE CLEAR 80 75 84 SW6 29.94S $$ AMZ130-135-150-152-154-156-158-170-250-252-270-ANZ085-086-088-633-658-670-230400- MARINE OBSERVATIONS STATION/POSITION TIME TEMP WIND PRES WAVE SWELL AIR SEA DIR/SP/G HT/PER HT/PER (UTC) (F) (DEG/KT/KT) (MB) (FT/S) (FT/S) CHESAPEAKE LIGHT NOT AVBL 64 E VA BEACH 0250 81 80 220/ 19/ 23 1011.3 5/ 6 2/ 9 DUCK 0300 84 61 200/ 16/ 20 1011.1 2 E DUCK 0300 62 N/A 2/11 2/11 OREGON INLET 0300 83 83 210/ 23/ 28 1012.2 13E OREGON INLT 0248 80 N/A 4/ 5 2/ 9 HATTERAS CG 0300 78 78 210/ 12/ 16 1013.2 DIAMOND BUOY 0250 84 81 230/ 21/ 25 1013.3 5/ 6 2/10 CAPE LOOKOUT 0300 81 220/ 11/ 18 1013.9 BEAUFORT LAB 0300 81 80 220/ 8/ 13 1013.4 30 SE NEW RVR IN 0308 81 81 240/ 16/ 21 1014.4 30 SE NEW RVR IN 0313 81 N/A 5/ 5 2/11 27 SE WRIGHTSVLE 0308 82 82 210/ 16/ 21 1014.1 5 SE WRIGHTSVLE 0308 81 79 200/ 10/ 16 1013.9 225 S CAPE HAT 0250 84 83 230/ 16/ 19 1017.4 5/ 8 3/ 8 41 SE CHARLESTON 0310 83 84 220/ 14/ 16 1015.0 $$

USA.gov is the U.S. government's official web portal to all federal, state and local government web resources and services.